Regional Weather Roundup
Issued by NWS Wakefield, VA

Home | Current Version | Previous Version | Text Only | Print | Product List | Glossary On
Versions: 1 2 3 4 5 6 7 8 9 10 11 12 13 14 15 16 17 18 19 20 21 22 23 24 25 26 27 28 29 30 31 32 33 34 35 36 37 38 39 40 41 42 43 44 45 46 47 48 49 50
000
ASUS41 KAKQ 062015
RWRAKQ

REGIONAL WEATHER ROUNDUP
NATIONAL WEATHER SERVICE WAKEFIELD VA
400 PM EDT MON JUL 06 2015

Note: "fair" indicates few or no clouds below 12,000 feet with no
significant weather and/or obstructions to visibility. * = Denotes
station may not report precipitation (e.g., rain,snow,etc.),
thunder or fog.

VAZ042-051-052>054-056-062100-
NORTHERN VIRGINIA

CITY           SKY/WX    TMP DP  RH WIND       PRES   REMARKS
WASH NATIONAL  PTSUNNY   88  72  58 S9        30.04F
DULLES         LGT RAIN  80  71  74 S7        30.05S
FORT BELVOIR   LGT RAIN  82  72  69 SE9       30.04F
QUANTICO       NOT AVBL
FREDERICKSBRG* MOSUNNY   88  72  57 S9        30.03S HX  95
STAFFORD*      MOSUNNY   84  69  60 S7        30.08S
WARRENTON      PTSUNNY   83  75  77 CALM      30.04F
CULPEPER*      PTSUNNY   83  73  71 S5        30.04F
MANASSAS*      MOSUNNY   82  72  69 SE7       30.04F
LEESBURG*        N/A    N/A N/A N/A MISG        N/A
WINCHESTER     PTSUNNY   84  70  61 S9        30.05S
FRONT ROYAL*   FAIR      82  70  65 S10       30.04S
LURAY*         CLOUDY    82  70  65 S3        30.04F
$$

VAZ048-049-060>072-079>083-062100-
CENTRAL AND SOUTH CENTRAL VIRGINIA

CITY           SKY/WX    TMP DP  RH WIND       PRES   REMARKS
RICHMOND       PTSUNNY   88  70  55 S10       30.04F
CHESTERFIELD*  NOT AVBL
PETERSBURG*    PTSUNNY   87  76  71 S5        30.06F HX  97
HANOVER        PTSUNNY   86  68  54 S10       30.06F
TAPPAHANNOCK*  SUNNY     87  66  48 S7        30.06F
QUINTON*       NOT AVBL
CHARLOTTSVILLE PTSUNNY   80  68  66 S8        30.05F
GORDONSVILLE*  CLOUDY    82  72  69 SW8       30.04F
ORANGE*        MOSUNNY   86  72  62 SE9       30.06S
LOUISA*        MOSUNNY   84  72  65 S8        30.05R
BUMPASS*       CLOUDY    77  72  85 CALM      30.06R
FARMVILLE*     PTSUNNY   83  69  61 SW8       30.05R
CREWE*         MOCLDY    85  71  64 S7        30.05S
FORT PICKETT*  MOCLDY    85  72  63 SW12      30.06F
CHASE CITY*    MOCLDY    81  77  88 W3        30.07F
CLARKSVILLE*   MOCLDY    82  70  65 S6        30.07S
SOUTH HILL*    PTSUNNY   85  70  61 SW12      30.12F
LAWRENCEVILLE* NOT AVBL
EMPORIA*         N/A     84  72  65 SE7G16    30.07F
$$

VAZ088>098-062100-
SOUTHEAST VIRGINIA

CITY           SKY/WX    TMP DP  RH WIND       PRES   REMARKS
NORFOLK        CLOUDY    81  73  76 SE10      30.09F
VIRGINIA BEACH TSTM      76  74  93 CALM      30.09F
NORFOLK NAVAL  CLOUDY    82  72  71 SE8       30.10F
WEST POINT*    MOSUNNY   91  68  46 S9        30.07F
SALUDA*        MOCLDY    85  73  67 S6        30.06F
NEWPORT NEWS   MOSUNNY   86  72  62 S9        30.07F
LANGLEY AFB    PTSUNNY   83  72  69 SE12      30.06F
FORT EUSTIS    MOSUNNY   85  83  94 S10       30.05F HX 105
WILLIAMSBURG*  MOSUNNY   91  73  55 S9        30.07F HX 100
HR EXEC AP*    FAIR      84  75  74 CALM      30.10S
FRANKLIN*      SUNNY     86  72  62 S6        30.07F
WAKEFIELD      MOSUNNY   88  72  58 SW10      30.05F
$$

VAZ020-022-025-037-045-062100-
WEST CENTRAL AND SOUTHWEST VIRGINIA

CITY           SKY/WX    TMP DP  RH WIND       PRES   REMARKS
STAUNTON*      MOSUNNY   82  68  63 S6        30.08F
WAYNESBORO*    MOCLDY    79  69  72 SE8       30.08F
HOT SPRINGS VA PTSUNNY   70  68  92 W9        30.18F
LYNCHBURG      PTSUNNY   77  71  82 W5        30.09F
DANVILLE       SUNNY     86  68  54 SW15      30.08S
SOUTH BOSTON*  FAIR      84  72  67 MISG      30.07S
MARTINSVILLE   MOSUNNY   85  66  52 W7        30.11S
ROANOKE        PTSUNNY   82  68  62 SW5       30.09F
BLACKSBURG     PTSUNNY   78  67  69 W6        30.16S
DUBLIN*        PTSUNNY   79  65  62 W8G16     30.16R
MARION*        LGT RAIN  71  64  79 W8        30.22S
HILLSVILLE*    MOSUNNY   77  59  54 W7        30.17S
RICHLANDS*     LGT RAIN  70  66  89 SW3       30.21R
WISE*          CLOUDY    73  61  64 W5        30.22S
ABINGDON*      CLOUDY    75  66  75 NW3       30.18S
$$

MDZ021>025-VAZ099-100-062100-
SOUTHERN MARYLAND AND THE DELMARVA PENINSULA

CITY           SKY/WX    TMP DP  RH WIND       PRES   REMARKS
PATUXENT RIVER MOSUNNY   83  75  77 SE14      30.06F
BAY BRIDGE APT   N/A     86  70  58 SE10      30.05F
LEONARDTOWN    PTSUNNY   84  70  61 SE8       30.07F
DOVER          MOSUNNY   83  75  77 E14       30.06F
GEORGETOWN     MOSUNNY   87  71  58 S8        30.08F
EASTON         MOSUNNY   90  72  55 S17       30.10F HX  96
CAMBRIDGE      MOSUNNY   86  66  51 S10       30.07S
SALISBURY      TSTM      80  69  69 VRB5G32   30.07F VSB 1
OCEAN CITY     PTSUNNY   81  75  82 VRB6      30.09F
WALLOPS ISLAND MOSUNNY   81  76  84 S10       30.10F
ACCOMACK*      MOSUNNY   82  77  83 S14       30.09S
$$

NCZ012>017-030>032-062100-
NORTH CENTRAL AND EASTERN NORTH CAROLINA

CITY           SKY/WX    TMP DP  RH WIND       PRES   REMARKS
ROANOKE RAPIDS FAIR      86  72  62 SW12      30.06F
RALEIGH        MOSUNNY   89  69  51 SW14      30.08F
ELIZABETH CITY CLOUDY    82  73  74 S7        30.10S
AHOSKIE*       SUNNY     87  72  61 S3        30.07F
EDENTON*         N/A     81  74  79 S7        30.09F
CURRITUCK*     CLOUDY    83  70  64 S6        30.11R
KILL DEVIL HLS CLOUDY    83  74  74 S6        30.10F
MANTEO         CLOUDY    82  74  78 S17       30.11F
CAPE HATTERAS  PTSUNNY   82  73  74 SW12      30.13F
TARBORO*         N/A     90  69  48 SW7       30.07F
GOLDSBORO      SUNNY     91  69  47 CALM      30.06F HX  96
WASHINGTON     SUNNY     85  74  70 SE8       30.08F
GREENVILLE     SUNNY     90  70  51 SW7       30.08F HX  95
NEW BERN       SUNNY     89  72  56 S10       30.10F HX  96
WILMINGTON     SUNNY     89  70  53 S12       30.09F
$$

VAZ048-062100-
ELSEWHERE

CITY           SKY/WX    TMP DP  RH WIND       PRES   REMARKS
HARRISBURG PA  PTSUNNY   81  70  69 SE6       30.05F
BALTIMORE      MOSUNNY   84  72  67 SE9       30.04F
ANNAPOLIS      SUNNY     83  72  69 SE14G21   30.05F
ANDREWS AFB    MOSUNNY   86  72  62 S9        30.04F
PHILADELPHIA   PTSUNNY   86  70  58 S8        30.08F
HENDERSON NC   MOSUNNY   85  66  52 S9        30.08S
GREENSBORO     PTSUNNY   87  64  46 W9        30.08F
ROCKY MOUNT    MOSUNNY   91  69  48 S10       30.07F HX  96
$$

VAZ100-062100-
MARINE

STATION/POSITION TIME  TEMP    WIND        PRES    WAVE   SWELL
                       AIR SEA DIR/SP/G            HT/PER HT/PER
                 (UTC) (F)     (DEG/KT/KT) (MB)    (FT/S) (FT/S)
BRANDYWINE LGT   1900   75 74  140/ 11/ 12 1019.3F
CAPE MAY NJ      1900   80 78  130/  8/ 10 1019.0F
LEWES DE         1900   82 74  150/ 11/ 14 1018.9F
15NM E FENWICK I 1950   77 76              1019.0F   2/13
OCEAN-CITY-INLET 1900   80 75  180/  5/  7 1019.3F
WACHAPREAGUE VA  1900   81 84  180/ 10/ 12 1019.2F
GOOSES REEF MD   2000   81 79  170/ 12/ 14 1018.7F
COVE POINT MD    1900   79     170/ 12/ 13 1019.0F
SOLOMONS ISLAND  1900      81                N/A
BISHOPS HEAD MD  1900   81     160/ 10/ 11 1018.4F
PINEY POINT MD   1900          140/ 14/ 15   N/A
CAMBRIDGE MD     1900   85 79  170/  9/ 14 1018.4F
LEWISETTA VA     1900   85 83  230/  7/  9 1017.7F
RAPPAHANNOCK LGT 1900          180/  8/ 10 1019.3F
STINGRAY PT      2000   81 81  160/ 17/ 21 1018.1F   2/ 2
YORK RVR RNG VA  1900   81     130/ 14/ 15 1018.1F
YORKTOWN VA      1900   86 80  190/  6/  8 1018.2F
JAMESTOWN VA     2000   85 84  150/  4/  8   N/A
DOMINION TERM VA 1900   78     210/ 11/ 13 1018.6F
KIPTOPEKE VA     1900      83  200/ 13/ 14   N/A
CHES BAY BRIDGE  1900   74 77  290/  3/  5 1019.1R
CAPE HENRY VA    1900   74     250/  8/  9   N/A
CHESAPEAKE LGHT  1900   79     180/ 17/ 18 1019.5S
WILLOUBY STN VA  1900   79     160/  7/ 11 1020.0R
CAPE HENRY BUOY  1928      79                N/A     3/ 9
1ST LANDING BUOY 2000      78              1019.0F   1/ 3
CAPE CHARLES BUO 1926      77                N/A     3/ 9   2/ 9
OFFSHORE WE BUOY 1911      78                N/A     3/ 8   2/ 8
64NM E OF VA BCH 1950   79 77  180/ 12/ 14 1019.7R   3/ 8   2/ 8
DUCK PIER NC     1900   79 78  180/ 12/ 16   N/A
44100 DUCK FRF   1924      79                N/A     2/ 8   2/13
44056 DUCK FRF   1911      77                N/A     2/13   2/13
OREGON INLET NC  1900   81 77  190/ 14/ 16 1020.3F
HATTERAS NC      1900   83 80  180/  8/ 12 1020.2F
DIAMOND SHLS NC  1950   81 83  180/ 16/ 17 1020.1F   3/ 4   2/ 9
CAPE LOOKOUT NC  2000   81     180/ 11/ 14 1019.5F
$$


USA.gov is the U.S. government's official web portal to all federal, state and local government web resources and services.